RYR8WU ESGG-LHBP

Flight info

Callsign RYR8WU
Flight time N/A
Altitude 27000
Route TOPLA N195 ELVIX/N0442F370 DCT POKEN DCT DOSAL L996 XERBI DCT DESEN DCT VALPI DCT NIT/N0359F230 M748 ARFOX
Aircraft B38M/M-SDE1FGHILORVWXY/HB1

Departure

Time 2026-05-05 17:19
Airport Göteborg Landvetter Airport (ESGG)

Arrival

Time N/A
Airport Budapest Liszt Ferenc International Airport (LHBP)
Time Latitude Longitude Altitude Speed Heading
2026-05-05 16:43 57.66850 12.29370 530 ft 0 kts 116°
2026-05-05 17:09 57.66856 12.29343 530 ft 4 kts 107°
2026-05-05 17:10 57.66859 12.29295 530 ft 4 kts 84°
2026-05-05 17:10 57.66852 12.29249 529 ft 4 kts 54°
2026-05-05 17:10 57.66839 12.29226 529 ft 0 kts 26°
2026-05-05 17:14 57.66849 12.29235 529 ft 5 kts 25°
2026-05-05 17:14 57.66920 12.29297 530 ft 18 kts 25°
2026-05-05 17:14 57.66986 12.29297 531 ft 8 kts 297°
2026-05-05 17:14 57.67016 12.29205 531 ft 10 kts 327°
2026-05-05 17:15 57.67110 12.29246 532 ft 19 kts 25°
2026-05-05 17:15 57.67236 12.29357 533 ft 16 kts 26°
2026-05-05 17:15 57.67326 12.29440 534 ft 15 kts 26°
2026-05-05 17:15 57.67400 12.29463 535 ft 7 kts 326°
2026-05-05 17:16 57.67431 12.29377 535 ft 9 kts 296°
2026-05-05 17:16 57.67454 12.29270 534 ft 4 kts 279°
2026-05-05 17:16 57.67455 12.29250 534 ft 2 kts 272°
2026-05-05 17:16 57.67455 12.29229 534 ft 3 kts 269°
2026-05-05 17:17 57.67449 12.29149 533 ft 11 kts 256°
2026-05-05 17:17 57.67379 12.28980 533 ft 21 kts 211°
2026-05-05 17:17 57.67221 12.28838 534 ft 16 kts 205°
2026-05-05 17:17 57.67212 12.28830 534 ft 0 kts 206°
2026-05-05 17:18 57.67188 12.28808 534 ft 11 kts 206°
2026-05-05 17:18 57.66891 12.28534 528 ft 87 kts 206°
2026-05-05 17:18 57.66131 12.27836 518 ft 153 kts 206°
2026-05-05 17:18 57.65065 12.26844 857 ft 180 kts 211°
2026-05-05 17:19 57.63925 12.25771 1688 ft 190 kts 207°
2026-05-05 17:19 57.62677 12.24689 2454 ft 205 kts 208°
2026-05-05 17:19 57.61317 12.23496 2928 ft 231 kts 208°
2026-05-05 17:19 57.59813 12.22338 3889 ft 240 kts 197°
2026-05-05 17:20 57.58074 12.22285 4678 ft 260 kts 178°
2026-05-05 17:20 57.56241 12.22458 5583 ft 268 kts 181°
2026-05-05 17:20 57.54381 12.22864 6689 ft 272 kts 174°
2026-05-05 17:20 57.52497 12.23467 7630 ft 277 kts 175°
2026-05-05 17:21 57.50577 12.24036 8617 ft 282 kts 176°
2026-05-05 17:21 57.48620 12.24593 9555 ft 287 kts 176°
2026-05-05 17:21 57.46654 12.25135 10357 ft 295 kts 177°
2026-05-05 17:22 57.42367 12.26288 11508 ft 325 kts 178°
2026-05-05 17:22 57.40110 12.26889 12336 ft 328 kts 179°
2026-05-05 17:22 57.37841 12.27491 13186 ft 332 kts 179°
2026-05-05 17:22 57.35543 12.28099 14004 ft 335 kts 180°
2026-05-05 17:23 57.33223 12.28715 14734 ft 338 kts 180°
2026-05-05 17:23 57.30881 12.29334 15416 ft 342 kts 179°
2026-05-05 17:23 57.28549 12.29950 16102 ft 345 kts 180°
2026-05-05 17:23 57.26159 12.30580 16797 ft 348 kts 180°
2026-05-05 17:24 57.23752 12.31213 17468 ft 352 kts 180°
2026-05-05 17:24 57.21316 12.31853 18134 ft 355 kts 180°
2026-05-05 17:24 57.18863 12.32497 18725 ft 358 kts 180°
2026-05-05 17:24 57.16387 12.33147 19277 ft 361 kts 180°
2026-05-05 17:25 57.13900 12.34035 19813 ft 373 kts 168°
2026-05-05 17:25 57.12319 12.35373 20231 ft 382 kts 158°
2026-05-05 17:25 57.09240 12.38603 20909 ft 388 kts 158°
2026-05-05 17:25 57.06892 12.41077 21423 ft 390 kts 158°
2026-05-05 17:26 57.04529 12.43585 21954 ft 394 kts 158°
2026-05-05 17:26 57.02140 12.46127 22431 ft 397 kts 157°
2026-05-05 17:26 56.99757 12.48662 22981 ft 399 kts 157°
2026-05-05 17:26 56.97343 12.51227 23479 ft 402 kts 157°
2026-05-05 17:27 56.94912 12.53808 23913 ft 405 kts 157°
2026-05-05 17:27 56.92466 12.56400 24352 ft 408 kts 157°
2026-05-05 17:27 56.90004 12.59005 24800 ft 410 kts 157°
2026-05-05 17:27 56.87524 12.61626 25228 ft 413 kts 157°
2026-05-05 17:28 56.85065 12.64220 25659 ft 415 kts 157°
2026-05-05 17:28 56.82557 12.66861 26084 ft 417 kts 157°
2026-05-05 17:28 56.80033 12.69516 26510 ft 420 kts 157°
2026-05-05 17:28 56.77497 12.72179 26915 ft 422 kts 157°
2026-05-05 17:29 56.74941 12.74858 27323 ft 425 kts 157°
2026-05-05 17:29 56.72374 12.77545 27683 ft 427 kts 158°
2026-05-05 17:29 56.69788 12.80247 28106 ft 429 kts 158°
2026-05-05 17:29 56.67200 12.82947 28501 ft 431 kts 158°
2026-05-05 17:30 56.64623 12.85632 28864 ft 433 kts 158°
2026-05-05 17:30 56.62001 12.88357 29233 ft 436 kts 158°
2026-05-05 17:30 56.59361 12.91099 29579 ft 438 kts 158°
2026-05-05 17:30 56.56706 12.93852 29937 ft 441 kts 158°
2026-05-05 17:31 56.54039 12.96613 30254 ft 443 kts 158°
2026-05-05 17:31 56.51352 12.99388 30556 ft 445 kts 158°
2026-05-05 17:31 56.48659 13.02166 30853 ft 447 kts 158°
2026-05-05 17:31 56.45952 13.04954 31142 ft 449 kts 158°
2026-05-05 17:32 56.43234 13.07748 31436 ft 451 kts 158°
2026-05-05 17:32 56.40504 13.10551 31697 ft 452 kts 157°
2026-05-05 17:32 56.37804 13.13317 32042 ft 452 kts 157°
2026-05-05 17:32 56.35064 13.16120 32296 ft 455 kts 157°
2026-05-05 17:33 56.32307 13.18936 32577 ft 456 kts 157°
2026-05-05 17:33 56.29538 13.21759 32850 ft 458 kts 157°
2026-05-05 17:33 56.26756 13.24590 33115 ft 460 kts 157°
2026-05-05 17:33 56.23960 13.27432 33378 ft 462 kts 156°
2026-05-05 17:34 56.21168 13.30265 33757 ft 461 kts 156°
2026-05-05 17:34 56.18378 13.33090 34107 ft 460 kts 156°
2026-05-05 17:34 56.15590 13.35908 34403 ft 459 kts 156°
2026-05-05 17:34 56.12806 13.38718 34695 ft 459 kts 156°
2026-05-05 17:35 56.10024 13.41520 34962 ft 458 kts 156°
2026-05-05 17:35 56.07291 13.44271 35334 ft 456 kts 156°
2026-05-05 17:35 56.04521 13.47052 35616 ft 456 kts 156°
2026-05-05 17:35 56.01756 13.49824 35879 ft 456 kts 156°
2026-05-05 17:36 55.98988 13.52595 36133 ft 456 kts 156°
2026-05-05 17:36 55.96217 13.55364 36395 ft 456 kts 156°
2026-05-05 17:36 55.93447 13.58128 36637 ft 456 kts 156°
2026-05-05 17:36 55.90679 13.60885 36867 ft 457 kts 156°
2026-05-05 17:37 55.87901 13.63646 36951 ft 457 kts 156°
2026-05-05 17:37 55.82397 13.69107 36923 ft 455 kts 156°
2026-05-05 17:38 55.76860 13.74580 36907 ft 455 kts 156°
2026-05-05 17:38 55.71331 13.80029 36907 ft 455 kts 156°
2026-05-05 17:39 55.65800 13.85462 36908 ft 455 kts 156°
2026-05-05 17:39 55.60305 13.90841 36898 ft 454 kts 156°
2026-05-05 17:40 55.54769 13.96245 36905 ft 454 kts 156°
2026-05-05 17:40 55.49234 14.01633 36869 ft 454 kts 157°
2026-05-05 17:41 55.43691 14.07012 36910 ft 456 kts 157°
2026-05-05 17:41 55.38017 14.11827 36937 ft 452 kts 162°
2026-05-05 17:42 55.32322 14.16365 36898 ft 452 kts 161°
2026-05-05 17:42 55.26602 14.20966 36901 ft 452 kts 161°